Regional Weather Roundup
Issued by NWS Spokane, WA

Home | Current Version | Previous Version | Text Only | Print | Product List | Glossary On
Versions: 1 2 3 4 5 6 7 8 9 10 11 12 13 14 15 16 17 18 19 20 21 22 23 24 25 26 27 28 29 30 31 32 33 34 35 36 37 38 39 40 41 42 43 44 45 46 47 48 49 50
000
NZUS01 KOTX 071410
RWROTX
EASTERN WASHINGTON/NORTHERN IDAHO ROUNDUP
NATIONAL WEATHER SERVICE, SPOKANE WA
600 AM PST SUN FEB 07 2016

Note: "fair" indicated few or no clouds below 12,000 feet with no
significant weather and/or obstructions to visibility.

...NORTHEAST WASHINGTON AND NORTHERN IDAHO PANHANDLE...

CITY           SKY/WX    TMP DP  RH WIND       PRES   REMARKS
SPOKANE INTL   FOG       27  26  96 E5        30.54R VSB 1/4 WCI  22
SPOKANE DOWNTO MOCLDY    27  25  92 CALM      30.58R
COEUR D ALENE  PTCLDY    25  19  80 NE6       30.55R WCI  18
DEER PARK      PTCLDY    18  16  92 NE3       30.56R
SANDPOINT      PTCLDY    25  25 100 CALM      30.57R
BONNERS FERRY  CLOUDY    27  25  93 CALM      30.57R

...SOUTHEAST WASHINGTON AND SOUTHERN IDAHO PANHANDLE...

CITY           SKY/WX    TMP DP  RH WIND       PRES   REMARKS
WALLA WALLA    CLEAR     32  28  85 S8        30.55R WCI  25
PULLMAN/MOSCOW CLEAR     33  25  72 E6        30.53S WCI  28
LEWISTON       CLEAR     31  27  85 E3        30.58R
LOWELL           N/A     34  30  85 CALM      30.64R

...COLUMBIA BASIN...

CITY           SKY/WX    TMP DP  RH WIND       PRES   REMARKS
EPHRATA        CLEAR     30  25  81 N5        30.56R WCI  25
MOSES LAKE     CLEAR     27  24  89 N6        30.57R WCI  20
TRI CITIES     CLEAR     26  23  88 CALM      30.60R
HERMISTON      CLEAR     27  25  92 S5        30.57R WCI  22
PENDLETON      CLEAR     30  26  85 SE7       30.54R WCI  23

...EAST SLOPES CASCADES...

CITY           SKY/WX    TMP DP  RH WIND       PRES   REMARKS
THE DALLES     CLOUDY    38  33  82 CALM      30.59R
YAKIMA         CLEAR     28  21  75 W9        30.58S WCI  19
ELLENSBURG     CLEAR     25  20  81 CALM      30.54F
WENATCHEE      CLEAR     30  25  81 CALM      30.58R
OMAK           CLOUDY    24  22  91 CALM      30.59R

...SOUTHERN BRITISH COLUMBIA...

CITY           SKY/WX    TMP DP  RH WIND       PRES   REMARKS
CASTLEGAR      CLOUDY    25  23  93 SE2       30.59
CRANBROOK      PTCLDY    18  12  79 N3        30.50R

...WESTERN MONTANA...

CITY           SKY/WX    TMP DP  RH WIND       PRES   REMARKS
MISSOULA       CLEAR     20  15  81 CALM      30.54R

...NEIGHBORING CITIES...

CITY           SKY/WX    TMP DP  RH WIND       PRES   REMARKS
SEATTLE        MOCLDY    37  35  92 CALM      30.50S
CALGARY        PTCLDY    30   3  31 W14G22    30.34R WCI  20



USA.gov is the U.S. government's official web portal to all federal, state and local government web resources and services.